Regional Weather Roundup
Issued by NWS Sterling, VA

Home | Current Version | Previous Version | Text Only | Print | Product List | Glossary Off
Versions: 1 2 3 4 5 6 7 8 9 10 11 12 13 14 15 16 17 18 19 20 21 22 23 24 25 26 27 28 29 30 31 32 33 34 35 36 37 38 39 40 41 42 43 44 45 46 47 48 49 50

000
ASUS41 KLWX 161311
RWRLWX

REGIONAL WEATHER ROUNDUP
NATIONAL WEATHER SERVICE BALTIMORE MD/WASHINGTON DC
800 AM EST SAT DEC 16 2017

Note: "FAIR" indicates few or no clouds below 12,000 feet
with no significant weather and/or obstructions to visibility.
 TC=TEMPERATURE CELSIUS

 * =Non NWS site. Station does not report precipitation (e.g. rain,
    snow, etc.), thunder, or fog.

DCZ001-MDZ009-015-VAZ040>042-051-053>054-161400-
WASHINGTON METRO

CITY           SKY/WX    TMP DP  RH WIND       PRES   REMARKS
WASHINGTON NAT MOCLDY    29  21  72 SW7       30.17R
DULLES         PTCLDY    23  20  88 S5        30.15R
ANDREWS AFB    CLOUDY    26  20  77 SW6       30.15R
FT BELVOIR     CLEAR     29  19  66 S3        30.16R
QUANTICO       CLEAR     32  20  61 W12       30.18S WCI  23
COLLEGE PARK*  CLEAR     28  21  74 CALM      30.16R
LEESBURG*      MOCLDY    30  23  74 S7        30.14S
MANASSAS*      CLEAR     21  19  92 CALM      30.17R
GAITHERSBURG*  PTCLDY    25  19  78 S5        30.12R

$$

MDZ006>007-011-014-161400-
BALTIMORE METRO

CITY           SKY/WX    TMP DP  RH WIND       PRES   REMARKS
BWI AIRPORT    CLOUDY    27  22  81 SW8       30.14R WCI  19
MD SCIENCE CTR   N/A     29  21  72 MISG      30.13R
MARTIN STATE   PTCLDY    25  23  93 SW3       30.15R
ANNAPOLIS      PTCLDY    29  23  78 VRB3      30.16R
FORT MEADE*    CLOUDY    21  19  93 CALM      30.17R

$$

MDZ012-015-019>023-161400-
MARYLAND EASTERN SHORE

CITY           SKY/WX    TMP DP  RH WIND       PRES   REMARKS
OCEAN CITY     CLEAR     29  25  85 SW6       30.19R
SALISBURY      CLEAR     26  25  96 SW3       30.18S
BAY BRIDGE AP* CLOUDY    32  23  69 MISG      30.15R
CAMBRIDGE*     CLEAR     27  25  93 S7        30.17S
EASTON*        CLEAR     27  23  86 S5        30.20R

$$

MDZ017>025-161400-
SOUTHERN MARYLAND

CITY           SKY/WX    TMP DP  RH WIND       PRES   REMARKS
PATUXENT RIVER MOCLDY    30  24  78 SW8       30.18S WCI  22
ST INIGOES     CLEAR     33  23  66 SW10      30.19R WCI  25
LEONARDTOWN*   CLOUDY    30  25  80 SW5       30.19S

$$

MDZ003>005-161400-
NORTH CENTRAL MARYLAND

CITY           SKY/WX    TMP DP  RH WIND       PRES   REMARKS
FREDERICK*     PTCLDY    34  16  47 S8        30.14R WCI  27
HAGERSTOWN APT CLOUDY    32  17  54 S8        30.08R WCI  25
WESTMINSTER*   PTCLDY    28  19  69 SW9       30.07R WCI  20

$$

MDZ501>502-161400-
WESTERN MARYLAND

CITY           SKY/WX    TMP DP  RH WIND       PRES   REMARKS
OAKLAND*       CLOUDY    23  19  86 W14G25    29.94R WCI  11
CUMBERLAND*    CLEAR     34  21  60 S6        30.10R

$$

VAZ025>031-161400-
SHENANDOAH VALLEY

CITY           SKY/WX    TMP DP  RH WIND       PRES   REMARKS
WINCHESTER*    CLEAR     28  18  64 S6        30.10R
FRONT ROYAL*   MOCLDY    32  19  59 MISG      30.10R
LURAY*         PTCLDY    28  21  74 SW3       30.11S
NEW MARKET*    MOCLDY    29  17  59 SW3       30.10S
STAUNTON*      PTCLDY    25  17  71 CALM      30.13S
WAYNESBORO*    CLEAR     26  18  72 SW6       30.12S

$$

WVZ021-048>050-054>055-161400-
EASTERN WEST VIRGINIA PANHANDLE

CITY           SKY/WX    TMP DP  RH WIND       PRES   REMARKS
MARTINSBURG    CLEAR     29  16  58 S6        30.09R
PETERSBURG*    CLOUDY    35  19  54 SW9       30.07F WCI  27

$$

VAZ036>039-050-161400-
CENTRAL FOOTHILLS

CITY           SKY/WX    TMP DP  RH WIND       PRES   REMARKS
CHARLOTTESVILL CLEAR     26  17  68 S6        30.15R
CULPEPER*      FAIR      22  19  85 CALM      30.17R
ORANGE*        CLEAR     21  18  86 CALM      30.17R
GORDONSVILLE*  CLEAR     19  17  91 CALM      30.18R
WARRENTON*     CLEAR     28  17  66 SW3       30.15R

$$

VAZ055>057-161400-
NORTH AND CENTRAL PIEDMONT

CITY           SKY/WX    TMP DP  RH WIND       PRES   REMARKS
FREDERICKSBRG* CLEAR     25  22  87 SW3       30.17F
STAFFORD*      CLEAR     26  21  79 CALM      30.21F

$$

NCZ024-NYZ072-PAZ021-071-VAZ022-071-161400-
OTHER REGIONAL OBSERVATIONS

CITY           SKY/WX    TMP DP  RH WIND       PRES   REMARKS
NEW YORK CITY  CLEAR     27  17  66 VRB5G21   30.05R
PHILADELPHIA   PTCLDY    25  20  81 SW10      30.12R WCI  15
PITTSBURGH     FLURRIES  31  25  78 SW9       30.02R WCI  23
ROANOKE        PTCLDY    33  20  58 W8        30.19R WCI  26
RICHMOND       PTCLDY    34  20  56 SW3       30.22R
RALEIGH        PTCLDY    25  20  81 CALM      30.25R

$$

ANZ530>537-161400-
MARINE OBSERVATIONS

STATION/POSITION TIME  TEMP    WIND        PRES
                       AIR SEA DIR/SP/G
                 (UTC) (F)     (DEG/KT/KT) (MB)
THOMAS PT LIGHT  1200   33 42  230/ 13/ 14   N/A
BALT KEY BRIDGE  1248   30     210/ 11/ 12 1020.6R
COVE POINT       1248   33     240/  9/ 14 1022.4R
LEWISETTA        1248   31 38  260/  9/ 10 1022.7R
SOLOMONS ISLAND  1236   34 45  240/ 11/ 12 1021.6F
PINEY POINT      1236          290/  8/ 10   N/A

$$




USA.gov is the U.S. government's official web portal to all federal, state and local government web resources and services.